Temperature
26 25 24 25 25 25 25 25 24 25 25 24 23 23 23 23 23 23 23 22 21 20 20 19 19 18 18 18 17 17 17 16 16 16 16 16 16 15 15 15 15 15 15 15
25 25 25 26 26 25 25 24 24 25 25 24 23 23 24 23 23 23 23 22 22 21 20 19 19 18 18 18 17 17 17 16 16 16 16 16 15 15 15 15 15 15 15 15
25 25 26 26 25 25 25 25 24 24 25 25 24 22 23 23 23 23 22 22 22 21 20 19 19 18 18 17 17 17 16 16 16 16 16 16 15 15 15 15 15 15 15 15
25 26 26 25 25 25 24 25 25 24 23 23 24 21 22 23 22 22 22 22 22 21 20 19 19 18 17 17 17 17 16 16 16 16 16 15 15 15 15 15 15 15 15 14
25 25 25 25 25 25 24 25 25 24 23 23 23 23 22 22 22 22 22 22 22 21 20 19 19 18 18 17 17 17 16 16 16 16 16 15 15 15 15 15 15 15 15 14
25 26 26 25 25 25 25 25 24 24 23 22 23 23 22 22 23 22 22 22 21 21 20 20 19 18 17 17 17 17 16 16 16 16 16 15 15 15 15 15 15 15 14 14
25 25 25 25 24 24 24 23 22 22 21 22 24 24 22 24 24 23 23 22 21 21 20 20 19 18 17 17 17 16 16 16 16 16 15 15 15 15 15 15 15 14 14 14
23 23 25 25 24 24 24 23 21 21 22 23 24 23 22 24 24 23 23 22 22 21 20 20 19 18 17 17 17 16 16 16 16 15 15 15 15 15 15 14 14 14 14 14
24 23 25 25 25 24 23 23 24 23 23 22 23 23 22 23 23 23 22 22 21 21 20 19 19 18 17 17 17 16 16 16 16 15 15 15 15 15 14 14 14 14 14 14
24 23 24 24 24 24 24 24 23 22 21 21 22 22 21 22 22 22 22 21 21 21 20 20 19 18 17 17 16 16 16 16 15 15 15 15 15 15 14 14 14 14 14 14
24 23 23 23 23 23 23 23 23 22 22 21 21 21 23 22 22 22 21 21 21 21 20 20 19 18 17 17 16 16 16 16 15 15 15 15 15 14 14 14 14 14 14 14
23 23 22 23 24 24 23 23 22 21 21 21 20 21 22 22 22 21 21 21 21 20 20 19 19 18 17 17 16 16 16 16 15 15 15 15 14 14 14 14 14 14 14 13
22 22 21 21 22 22 22 23 22 22 21 21 20 20 22 21 21 21 20 20 20 20 19 19 18 18 17 17 16 16 16 16 15 15 15 14 14 14 14 14 13 13 13 13
21 21 21 20 21 22 22 22 22 21 20 20 21 21 21 21 20 20 20 19 19 19 19 18 18 18 17 17 16 16 16 15 15 15 15 14 14 14 14 14 13 13 13 13
21 21 22 22 22 22 22 22 22 21 21 20 21 21 20 20 20 20 19 19 19 18 18 17 17 17 17 16 16 16 15 15 15 14 14 14 14 14 14 13 13 13 13 13
21 21 21 21 22 21 21 21 21 21 21 20 20 20 21 20 20 19 19 18 18 18 17 17 16 16 16 16 16 15 15 15 15 14 14 14 14 13 13 13 13 13 13 12
21 20 20 20 21 21 19 20 20 20 20 20 19 19 20 19 19 18 18 18 17 17 17 16 16 16 16 15 15 15 15 15 14 14 14 14 13 13 13 13 12 12 12 12
20 20 19 19 20 18 19 21 21 20 20 20 19 19 19 19 18 18 17 17 17 16 16 15 15 15 15 15 15 15 14 14 14 14 13 13 13 13 13 12 12 12 12 12
20 19 19 18 18 19 19 19 20 19 18 19 19 19 18 18 17 17 17 16 16 15 15 15 15 15 15 15 15 14 14 14 13 13 13 13 13 12 12 12 12 11 11 11
19 19 18 18 17 18 18 19 19 19 17 18 18 18 18 17 16 16 16 15 15 15 14 14 15 15 14 14 14 14 14 13 13 13 13 12 12 12 12 12 11 11 11 11
18 18 17 17 17 18 18 18 18 17 16 17 17 17 17 16 16 15 15 15 14 14 14 14 14 14 14 14 14 13 13 13 13 12 12 12 12 11 11 11 11 11 10 10
18 17 17 17 17 17 17 17 17 16 17 17 16 16 16 15 15 14 14 14 14 14 13 13 13 13 13 13 13 13 13 13 12 12 12 11 11 11 11 11 10 10 10 10
18 18 17 17 17 17 17 17 16 16 16 16 15 15 15 14 14 14 13 13 13 13 13 13 13 13 12 12 12 12 12 12 12 12 11 11 11 11 10 10 10 10 10 9
18 18 17 17 17 17 16 16 15 15 15 15 15 14 14 14 13 13 13 13 13 12 12 12 12 12 12 12 12 12 11 11 11 11 11 11 10 10 10 10 9 9 9 9
16 17 16 16 16 16 15 15 15 14 14 14 14 14 13 13 13 13 12 12 12 12 12 12 11 11 11 11 11 11 11 11 11 10 10 10 10 10 9 9 9 9 9 9
16 15 15 15 15 15 15 14 14 13 13 13 13 13 13 13 12 12 12 11 11 11 11 11 11 11 11 11 11 11 10 10 10 10 10 9 9 9 9 9 8 8 8 8
Wind_Speed
8 7 5 5 6 5 6 6 5 2 3 4 5 5 7 8 7 6 7 7 9 9 9 7 6 6 5 5 6 5 5 4 4 3 3 2 2 2 2 2 4 5 5 5
6 7 5 5 5 7 8 6 6 3 3 4 5 6 6 8 8 7 6 7 9 9 10 9 8 6 5 5 6 5 5 4 5 3 2 2 2 2 3 2 4 4 4 5
8 3 4 6 7 7 8 6 5 4 3 6 6 6 6 7 7 6 5 5 7 8 8 10 9 8 6 5 6 6 5 5 5 4 2 2 3 2 2 2 2 2 3 4
7 5 5 6 7 7 6 4 5 6 6 5 6 5 6 7 7 8 7 7 6 7 8 9 8 8 7 5 5 5 5 5 4 4 3 3 3 2 2 2 2 1 2 3
5 4 6 7 6 6 5 6 8 9 8 9 8 6 4 7 8 8 8 7 6 7 8 10 9 8 7 6 5 5 5 5 4 4 3 2 2 1 1 2 2 2 1 2
7 4 5 5 4 5 6 8 10 9 7 8 9 7 3 5 7 7 7 8 8 7 7 9 9 8 7 7 6 5 5 4 4 4 4 3 3 2 2 2 1 1 1 1
9 8 6 5 6 6 8 7 5 5 6 6 5 4 2 4 5 6 7 8 9 8 8 8 10 9 7 7 7 6 6 5 5 4 4 4 3 3 2 2 2 1 1 1
8 7 6 5 6 6 7 7 5 5 5 4 5 3 4 5 6 5 4 4 7 9 9 9 9 9 8 8 7 7 6 5 4 4 3 3 3 2 2 2 2 2 1 2
6 4 3 4 4 6 6 7 7 8 10 7 3 4 5 5 6 5 5 4 4 6 8 9 9 9 9 8 7 7 7 6 5 4 3 2 3 3 2 2 2 2 1 1
8 7 5 5 6 8 8 7 5 5 5 6 4 3 4 7 7 6 5 4 3 4 7 8 8 8 8 8 6 6 6 6 5 5 3 2 2 2 2 2 2 2 1 1
9 8 6 6 7 7 7 7 6 5 5 4 4 1 3 4 5 5 4 3 3 3 4 6 7 8 7 7 7 7 6 5 5 5 4 3 2 2 2 2 1 1 1 1
5 7 8 8 5 4 6 7 7 5 6 5 4 0 5 4 4 3 3 3 2 2 3 4 6 7 7 8 7 7 6 6 5 4 4 3 3 3 2 2 2 1 1 1
5 6 7 5 4 4 6 6 7 7 6 6 5 2 4 4 3 2 2 1 1 2 2 3 4 5 6 6 7 6 6 6 5 5 4 3 3 3 3 2 2 1 1 1
4 7 9 8 5 4 6 7 8 7 6 7 7 2 1 2 2 2 2 2 2 2 2 2 2 3 4 5 5 5 5 5 6 5 5 4 3 4 3 2 2 1 1 1
4 8 10 9 8 8 9 9 8 9 9 8 6 4 2 1 2 2 1 1 2 1 2 2 1 2 3 4 4 5 5 5 6 6 5 4 3 3 3 3 2 2 1 1
5 7 9 10 8 8 9 8 8 9 9 8 7 6 2 2 3 3 2 2 1 1 2 2 1 2 2 3 4 5 5 5 5 5 4 4 3 3 3 3 3 2 2 2
5 7 8 9 8 8 8 7 7 7 6 6 6 4 2 2 2 2 2 2 2 2 3 2 2 1 1 2 3 4 4 5 4 5 5 4 3 3 3 3 2 3 2 2
7 7 6 7 7 8 2 2 1 2 3 2 2 2 2 2 2 2 2 2 2 2 2 1 1 0 1 0 1 3 4 4 5 4 4 3 3 3 3 3 3 3 2 2
6 6 5 5 7 6 2 1 1 2 3 1 1 1 1 2 2 1 3 4 3 3 2 2 1 1 0 0 0 2 3 3 4 4 4 4 4 3 3 4 3 2 1 2
4 6 5 5 6 4 2 4 3 2 2 3 3 1 0 1 2 1 3 3 3 3 2 2 2 2 1 0 1 2 3 3 4 4 4 4 4 4 4 4 3 2 2 2
4 5 6 7 7 3 3 3 2 1 2 4 3 3 1 1 2 2 3 4 3 3 3 3 2 2 1 1 0 1 2 2 3 3 4 3 4 4 4 3 3 2 2 2
4 3 5 6 6 3 4 2 1 3 4 4 4 3 3 3 3 3 3 3 3 3 3 2 2 1 2 1 1 1 1 1 2 2 3 3 4 4 3 4 3 3 3 3
2 2 2 2 1 3 3 3 5 5 4 5 4 4 3 2 2 3 3 3 3 2 2 2 2 1 2 1 1 1 1 1 1 2 2 3 3 4 4 4 3 3 3 3
3 3 3 3 1 2 2 3 4 5 5 5 4 3 2 2 2 3 3 3 2 2 2 2 2 1 2 2 1 1 1 0 1 2 2 3 3 3 3 3 3 3 3 3
4 4 5 5 3 2 2 3 4 4 5 5 4 3 2 2 2 3 3 3 3 2 2 2 2 2 3 2 2 1 1 1 2 2 2 2 2 3 2 2 2 3 3 4
5 5 5 4 4 3 3 4 5 5 4 4 4 4 3 3 3 3 3 3 3 3 3 3 2 2 2 2 2 1 1 1 2 2 2 2 2 2 2 2 1 1 3 4
Wind_Direction
221 226 228 232 235 254 268 275 272 231 173 214 234 224 190 182 193 193 184 174 166 164 160 151 146 137 130 123 120 120 122 120 109 96 93 92 92 90 76 58 60 59 60 71
229 229 233 248 255 262 263 262 269 249 192 236 241 243 206 186 195 198 196 184 174 167 160 156 151 143 145 139 132 129 123 116 107 100 106 115 109 107 106 79 63 53 61 67
236 229 228 243 251 256 262 260 270 273 248 245 240 240 212 197 187 186 193 190 177 164 160 160 159 154 152 148 146 144 143 134 126 121 108 99 86 76 84 91 75 45 59 68
239 234 237 247 258 269 270 277 272 267 260 254 239 255 212 187 185 187 189 190 183 167 162 157 157 158 156 150 145 145 141 135 130 130 124 130 126 119 132 130 125 114 77 84
250 230 242 249 260 272 279 289 274 264 264 267 253 251 206 174 190 187 182 181 178 166 165 161 161 159 158 150 150 152 140 137 139 137 136 136 122 133 121 111 132 132 107 95
249 238 250 261 262 266 275 272 264 254 255 257 249 246 201 190 184 174 177 179 176 165 163 164 158 151 149 148 148 145 139 143 142 147 153 153 142 144 134 134 127 123 123 98
236 223 225 240 253 241 250 262 261 240 229 241 238 236 151 129 121 145 166 178 171 168 166 160 154 154 153 155 153 153 151 150 150 163 167 162 162 170 172 162 157 152 135 113
245 230 215 217 247 264 247 256 265 275 271 262 230 216 130 111 103 111 127 148 166 168 164 160 158 159 160 163 163 165 163 158 157 170 179 170 162 163 178 166 153 168 156 155
279 251 213 217 237 260 264 254 268 279 284 281 236 150 147 130 124 130 135 141 166 164 158 159 163 164 166 169 173 172 167 164 165 177 191 178 161 158 170 170 158 155 171 179
280 277 235 220 227 233 256 281 277 259 281 280 265 226 173 156 155 151 142 147 158 163 163 160 161 166 169 169 173 170 170 169 165 173 181 175 158 155 149 146 164 166 187 199
273 270 248 225 226 232 232 247 263 277 270 277 290 12 80 131 138 141 142 140 159 157 160 162 160 161 169 172 175 177 176 171 167 171 174 165 164 158 145 144 148 171 201 204
267 270 259 242 225 233 249 252 257 262 270 266 271 195 79 90 92 92 108 121 120 120 143 150 155 160 171 177 179 179 176 173 167 169 170 163 156 144 155 167 172 188 181 198
310 266 260 238 222 205 237 250 265 273 271 268 261 184 114 99 91 82 56 67 91 106 117 123 149 162 169 175 179 176 172 169 163 159 161 165 159 161 168 164 163 183 186 196
289 265 266 271 289 267 249 250 250 257 259 265 270 254 160 97 83 81 56 36 61 83 105 96 125 158 161 169 173 170 171 166 163 160 167 184 182 177 174 164 157 191 218 181
268 267 278 287 289 283 273 268 257 252 259 265 285 296 311 59 89 95 105 74 65 66 93 102 132 153 161 166 172 171 172 166 165 167 173 181 182 179 172 163 164 180 201 221
258 276 284 280 273 274 274 272 267 263 265 272 282 289 343 46 70 57 46 52 53 41 61 62 117 151 168 179 177 172 167 166 165 168 167 162 173 174 167 169 166 173 197 218
249 266 275 273 275 277 266 261 253 256 264 259 270 281 13 47 53 28 7 26 51 24 53 30 6 71 184 187 180 169 166 160 164 169 164 167 168 167 165 170 172 184 194 202
267 265 267 275 273 259 257 23 352 281 300 313 334 26 49 50 43 37 20 22 40 33 15 12 339 313 280 193 154 164 155 158 164 161 160 166 168 173 168 165 180 191 190 181
253 261 266 264 268 261 222 4 328 263 279 320 314 3 31 58 41 27 31 26 27 38 10 342 327 285 187 94 134 152 154 163 166 163 167 172 173 172 171 175 185 182 180 192
249 255 255 262 267 267 57 50 10 292 255 6 356 353 130 27 295 328 22 22 22 43 24 352 355 2 53 107 174 161 166 173 178 174 177 179 176 180 190 190 188 185 197 208
220 236 239 252 259 257 61 53 39 278 352 13 10 16 11 313 11 37 26 26 28 32 21 13 10 10 16 19 44 182 177 187 184 176 176 181 189 194 193 186 184 193 204 206
235 233 236 241 249 247 65 83 14 9 30 23 11 15 28 31 46 36 24 20 16 14 15 8 8 13 351 359 219 204 203 196 161 164 184 193 193 200 193 175 188 198 200 211
260 291 295 267 270 50 73 45 29 26 9 10 5 14 33 13 17 10 358 355 358 359 4 0 356 337 328 333 289 239 249 165 153 175 200 202 194 191 187 184 192 203 201 207
289 319 288 284 282 31 35 37 21 7 357 354 355 0 2 342 341 346 340 335 336 342 345 332 318 291 291 298 286 235 269 192 179 202 210 206 197 198 190 184 191 198 202 207
310 311 287 280 309 344 1 353 344 349 350 345 344 339 328 326 321 320 320 323 324 327 327 311 301 294 289 290 282 273 227 203 216 219 211 215 200 186 187 186 203 205 206 197
283 284 277 283 313 310 313 336 347 345 334 329 328 330 334 328 311 316 318 315 309 304 300 292 288 290 282 278 272 252 224 206 219 226 217 210 193 188 184 179 227 230 213 212
Height
1479 1481 1483 1481 1480 1481 1482 1483 1485 1483 1480 1484 1487 1488 1487 1489 1491 1493 1495 1497 1500 1503 1506 1508 1510 1512 1514 1515 1516 1518 1519 1520 1521 1522 1523 1524 1524 1525 1525 1526 1526 1526 1526 1527
1478 1481 1477 1476 1476 1478 1479 1484 1484 1481 1478 1482 1485 1486 1484 1485 1488 1490 1492 1494 1497 1500 1503 1506 1509 1511 1513 1514 1516 1517 1519 1520 1521 1522 1523 1524 1525 1526 1526 1526 1527 1527 1527 1527
1478 1477 1474 1475 1477 1479 1480 1482 1482 1483 1480 1479 1484 1488 1484 1483 1485 1488 1490 1492 1494 1497 1500 1503 1506 1509 1511 1513 1514 1516 1518 1519 1520 1521 1522 1524 1525 1525 1526 1526 1527 1527 1527 1528
1473 1472 1473 1476 1477 1478 1482 1476 1478 1480 1486 1487 1484 1497 1485 1481 1483 1485 1488 1491 1493 1495 1498 1501 1504 1507 1509 1511 1513 1515 1516 1518 1519 1521 1522 1523 1524 1525 1526 1526 1527 1527 1528 1528
1473 1472 1474 1477 1476 1476 1478 1475 1476 1478 1482 1486 1482 1488 1485 1479 1484 1483 1485 1488 1491 1493 1496 1499 1502 1505 1508 1509 1511 1513 1515 1517 1518 1520 1521 1522 1523 1524 1525 1526 1526 1527 1527 1528
1470 1470 1472 1473 1473 1474 1475 1476 1475 1475 1482 1494 1481 1484 1487 1479 1478 1479 1482 1485 1489 1491 1495 1497 1500 1503 1506 1508 1510 1512 1514 1516 1517 1519 1520 1521 1522 1523 1524 1525 1526 1526 1527 1527
1472 1470 1470 1472 1475 1475 1476 1484 1493 1496 1496 1490 1472 1477 1482 1472 1471 1475 1479 1482 1486 1489 1493 1496 1499 1501 1504 1506 1508 1511 1513 1514 1516 1518 1519 1520 1521 1522 1523 1524 1524 1525 1526 1526
1477 1478 1470 1470 1474 1477 1476 1480 1496 1504 1496 1484 1473 1477 1477 1470 1471 1475 1478 1480 1484 1487 1490 1493 1496 1499 1502 1504 1507 1509 1511 1513 1514 1516 1518 1519 1520 1521 1521 1522 1523 1524 1524 1525
1475 1476 1468 1469 1471 1474 1478 1478 1475 1484 1483 1485 1477 1474 1474 1469 1472 1475 1478 1480 1483 1486 1488 1491 1494 1497 1500 1502 1505 1507 1509 1511 1513 1514 1516 1518 1519 1519 1520 1521 1522 1522 1523 1524
1470 1477 1470 1469 1470 1471 1473 1474 1477 1485 1494 1497 1483 1478 1479 1475 1474 1475 1477 1480 1482 1485 1487 1489 1492 1495 1497 1500 1503 1505 1507 1509 1511 1512 1514 1515 1517 1517 1518 1519 1520 1520 1521 1522
1470 1476 1473 1470 1473 1474 1474 1476 1477 1480 1482 1494 1496 1488 1469 1472 1472 1474 1476 1479 1482 1483 1485 1488 1490 1493 1495 1498 1501 1503 1506 1507 1509 1510 1512 1513 1514 1515 1516 1517 1518 1519 1519 1520
1470 1473 1476 1470 1465 1466 1470 1473 1477 1489 1487 1482 1490 1490 1469 1471 1472 1475 1477 1479 1480 1482 1484 1486 1489 1491 1494 1496 1498 1501 1503 1505 1506 1508 1510 1511 1512 1513 1514 1515 1515 1516 1517 1518
1473 1476 1481 1480 1476 1470 1471 1471 1473 1476 1481 1484 1489 1488 1471 1473 1474 1476 1478 1479 1480 1481 1483 1485 1487 1489 1491 1494 1496 1498 1500 1502 1504 1505 1507 1508 1509 1511 1512 1512 1513 1514 1515 1515
1475 1475 1479 1485 1478 1471 1473 1471 1471 1476 1484 1484 1480 1480 1475 1474 1475 1477 1479 1480 1481 1482 1482 1484 1485 1487 1489 1491 1493 1495 1497 1499 1501 1502 1504 1506 1507 1508 1509 1510 1511 1512 1512 1513
1474 1475 1471 1469 1467 1467 1469 1470 1470 1474 1475 1479 1476 1475 1475 1473 1475 1477 1479 1480 1480 1481 1482 1483 1484 1485 1487 1489 1491 1492 1495 1496 1498 1500 1501 1503 1504 1505 1506 1507 1508 1509 1510 1510
1473 1474 1472 1471 1467 1467 1470 1470 1470 1471 1472 1473 1473 1475 1471 1472 1475 1477 1478 1479 1480 1481 1481 1482 1483 1484 1486 1487 1488 1490 1492 1494 1495 1497 1498 1500 1501 1502 1503 1504 1505 1506 1507 1508
1471 1474 1477 1475 1468 1468 1475 1469 1469 1470 1469 1471 1475 1474 1472 1473 1475 1477 1478 1479 1480 1481 1481 1482 1482 1483 1484 1485 1486 1487 1489 1490 1492 1494 1495 1496 1498 1499 1500 1501 1502 1503 1504 1505
1471 1473 1475 1475 1475 1484 1473 1464 1465 1468 1469 1469 1471 1472 1473 1475 1476 1477 1478 1479 1479 1479 1480 1481 1481 1482 1482 1483 1484 1485 1486 1488 1489 1491 1492 1493 1495 1496 1497 1498 1499 1500 1500 1501
1470 1473 1476 1478 1480 1474 1470 1467 1467 1469 1472 1470 1471 1472 1473 1475 1475 1477 1477 1478 1478 1479 1479 1479 1480 1480 1481 1481 1482 1483 1484 1486 1487 1488 1489 1490 1491 1492 1493 1494 1495 1496 1497 1498
1469 1470 1476 1477 1482 1480 1474 1468 1466 1469 1474 1471 1471 1472 1473 1474 1477 1478 1477 1477 1477 1477 1478 1478 1478 1478 1478 1479 1480 1481 1482 1483 1484 1485 1486 1487 1488 1489 1490 1491 1492 1493 1494 1495
1474 1474 1476 1479 1480 1473 1471 1469 1469 1478 1479 1473 1472 1473 1474 1475 1477 1477 1476 1476 1476 1476 1476 1476 1476 1477 1477 1477 1478 1479 1479 1480 1481 1482 1483 1484 1485 1486 1487 1488 1489 1490 1491 1492
1470 1474 1475 1476 1480 1479 1472 1471 1474 1476 1474 1474 1474 1474 1474 1475 1475 1475 1476 1476 1476 1475 1475 1475 1475 1475 1475 1475 1475 1475 1477 1478 1479 1479 1480 1481 1482 1483 1484 1485 1485 1486 1487 1488
1468 1470 1471 1473 1477 1473 1472 1473 1474 1474 1474 1474 1475 1474 1474 1475 1475 1475 1475 1475 1474 1474 1474 1473 1473 1473 1474 1474 1474 1474 1475 1475 1476 1476 1477 1478 1478 1479 1480 1481 1482 1482 1483 1484
1467 1467 1469 1470 1470 1471 1473 1473 1474 1475 1475 1475 1475 1474 1474 1474 1474 1474 1474 1473 1473 1472 1472 1472 1471 1471 1472 1472 1472 1472 1472 1472 1473 1473 1474 1475 1475 1476 1477 1478 1478 1479 1479 1480
1471 1470 1470 1470 1471 1472 1473 1474 1474 1474 1474 1474 1474 1474 1474 1473 1473 1473 1472 1471 1471 1470 1470 1470 1469 1469 1469 1469 1469 1469 1469 1469 1470 1470 1471 1471 1472 1473 1473 1474 1475 1475 1476 1476
1472 1473 1473 1473 1473 1473 1473 1474 1474 1473 1473 1473 1473 1472 1472 1472 1472 1471 1471 1470 1469 1469 1468 1468 1467 1467 1466 1466 1466 1466 1466 1466 1466 1467 1467 1468 1468 1469 1470 1470 1471 1472 1473 1473